IW1CGW-23 Weather Reports


time (UTC)temp
C
wind
direction
speed
KPH
gust
KPH
rain 1hr
cm
rain 24hr
cm
rain mn
cm
humidity
%
barometer
mb
20260506023156 13 0.0 0.0 0.00 0.00 0.00 91 1009.3
20260506015253 13 0.0 0.0 0.00 0.00 0.00 91 1009.8
20260506011350 13 0.0 0.0 0.00 0.00 0.00 91 1010.0
20260506010049 13 0.0 0.0 0.00 0.00 0.00 92 1010.0
20260506003448 13 0.0 0.0 0.00 0.00 0.00 93 1009.8
20260506002147 13 0.0 0.0 0.00 0.00 0.00 93 1010.4
20260506000908 13 0.0 0.0 0.00 0.00 0.00 93 1010.5
20260505235545 13 0.0 0.0 0.00 0.00 0.00 92 1011.0
20260505232942 13 0.0 0.0 0.00 0.00 0.00 91 1011.8
20260505231640 13 0.0 0.0 0.00 0.00 0.00 91 1012.0
20260505230339 13 0.0 0.0 0.00 0.00 0.00 91 1012.0
20260505223742 13 0.0 0.0 0.00 0.00 0.00 90 1011.3
20260505222435 13 0.0 0.0 0.00 0.00 0.00 90 1011.5
20260505221134 13 0.0 0.0 0.00 0.00 0.00 90 1011.9
20260505215833 13 0.0 0.0 0.00 0.00 0.00 90 1012.1
20260505214531 13 0.0 0.0 0.00 0.00 0.00 90 1012.4
20260505213230 13 0.0 0.0 0.00 0.00 0.00 90 1013.0
20260505211929 13 0.0 0.0 0.00 0.00 0.00 90 1012.9
20260505200120 13 0.0 0.0 0.00 0.00 0.00 89 1013.2
20260505193518 14 0.0 0.0 0.00 0.00 0.00 88 1012.8
20260505185613 15 0.0 0.0 0.00 0.00 0.00 86 1012.4
20260505184312 15 0.0 0.0 0.00 0.00 0.00 86 1012.5
20260505181713 16 0.0 0.0 0.00 0.00 0.00 85 1012.4
20260505175103 16 0.0 0.0 0.00 0.00 0.00 85 1012.5
20260505173801 16 0.0 0.0 0.00 0.00 0.00 84 1012.6
20260505172458 16 0.0 0.0 0.00 0.00 0.00 84 1012.7
20260505171156 16 0.0 0.0 0.00 0.00 0.00 84 1012.7
20260505165916 16 0.0 0.0 0.00 0.00 0.00 84 1012.9
20260505164551 16 0.0 0.0 0.00 0.00 0.00 84 1013.0
20260505163248 16 0.0 0.0 0.00 0.00 0.00 83 1012.9
20260505160641 17 0.0 0.0 0.00 0.00 0.00 83 1012.9
20260505152738 16 0.0 0.0 0.00 0.00 0.00 83 1013.1
20260505123750 16 0.0 0.0 0.00 0.00 0.00 88 1013.6
20260505122447 16 0.0 0.0 0.00 0.00 0.00 88 1013.6
20260505094808 16 0.0 0.0 0.00 0.00 0.00 91 1013.6
20260505090901 16 0.0 0.0 0.00 0.00 0.00 90 1013.4
20260505085558 16 0.0 0.0 0.00 0.00 0.00 90 1013.4
20260505082953 15 0.0 0.0 0.00 0.00 0.00 89 1013.2
20260505081651 16 0.0 0.0 0.00 0.00 0.00 89 1013.1
20260505080348 16 0.0 0.0 0.00 0.00 0.00 89 1013.0
20260505072438 16 0.0 0.0 0.00 0.00 0.00 90 1012.9
20260505071135 15 0.0 0.0 0.00 0.00 0.00 90 1012.9
20260505065833 16 0.0 0.0 0.00 0.00 0.00 88 1012.9
20260505064529 16 0.0 0.0 0.00 0.00 0.00 88 1012.5
20260505061926 18 0.0 0.0 0.00 0.00 0.00 89 1012.2
20260505055316 16 0.0 0.0 0.00 0.00 0.00 90 1012.1
20260505054012 18 0.0 0.0 0.00 0.00 0.00 89 1012.0
20260505052708 18 0.0 0.0 0.00 0.00 0.00 91 1011.8
20260505050125 13 0.0 0.0 0.00 0.00 0.00 93 1011.5
20260505034258 13 0.0 0.0 0.00 0.00 0.00 92 1011.5
20260505032956 14 0.0 0.0 0.00 0.00 0.00 92 1011.5
20260505031721 13 0.0 0.0 0.00 0.00 0.00 92 1011.7
20260505030355 13 0.0 0.0 0.00 0.00 0.00 92 1011.7